This is the latest recevied weather packets stored in our database for station/object N1PRS-9. If no packets are shown the sender has not sent any weather packets the latest 10 day(s).
| Time | Temp. | Humidity | Pressure | Rain* | Wind** | Luminosity | Snow |
|---|---|---|---|---|---|---|---|
| 1777925132 | 21.67° C | 38% | 1008.7 hPa | 0 mm | - | 622 W/m² | - |
| 1777924533 | 21.67° C | 38% | 1008.8 hPa | 0 mm | - | 722 W/m² | - |
| 1777924231 | 21.67° C | 37% | 1008.7 hPa | 0 mm | - | 763 W/m² | - |
| 1777923043 | 22.22° C | 34% | 1008.7 hPa | 0 mm | - | 780 W/m² | - |
| 1777921832 | 22.22° C | 34% | 1008.9 hPa | 0 mm | - | 844 W/m² | - |
| 1777920633 | 22.22° C | 35% | 1008.9 hPa | 0 mm | - | 865 W/m² | - |
| 1777920345 | 21.67° C | 34% | 1008.9 hPa | 0 mm | - | 856 W/m² | - |
| 1777920032 | 21.67° C | 36% | 1008.9 hPa | 0 mm | - | 872 W/m² | - |
| 1777919445 | 21.67° C | 35% | 1009 hPa | 0 mm | - | 875 W/m² | - |
| 1777917646 | 21.11° C | 35% | 1009.3 hPa | 0 mm | - | 907 W/m² | - |
| 1777916739 | 20.56° C | 36% | 1009.8 hPa | 0 mm | - | 919 W/m² | - |
| 1777916433 | 20.56° C | 35% | 1009.9 hPa | 0 mm | - | 930 W/m² | - |
| 1777915845 | 20.56° C | 37% | 1009.9 hPa | 0 mm | - | 947 W/m² | - |
| 1777914946 | 20.56° C | 36% | 1010.2 hPa | 0 mm | - | 937 W/m² | - |
| 1777914051 | 20° C | 36% | 1010.1 hPa | 0 mm | - | 937 W/m² | - |
| 1777912829 | 19.44° C | 37% | 1010.2 hPa | 0 mm | - | 935 W/m² | - |
| 1777911629 | 18.89° C | 37% | 1010.4 hPa | 0 mm | - | 846 W/m² | - |
| 1777911346 | 18.89° C | 35% | 1010.6 hPa | 0 mm | - | 925 W/m² | - |
| 1777911033 | 18.89° C | 36% | 1010.5 hPa | 0 mm | - | 921 W/m² | - |
| 1777909566 | 18.33° C | 39% | 1010.9 hPa | 0 mm | - | 738 W/m² | - |
| 1777908031 | 18.33° C | 38% | 1011.2 hPa | 0 mm | - | 401 W/m² | - |
| 1777905944 | 17.22° C | 40% | 1011.5 hPa | 0 mm | - | 141 W/m² | - |
| 1777905331 | 16.67° C | 40% | 1011.5 hPa | 0 mm | - | 72 W/m² | - |
| 1777901438 | 13.89° C | 51% | 1012.2 hPa | 0 mm | - | 46 W/m² | - |
| 1777898745 | 12.22° C | 56% | 1012.7 hPa | 0 mm | - | 37 W/m² | - |
* Rain latest hour (hover to see other rain measurements)
** Current wind speed in m/s (hover to see current wind gust speed)